Regional Weather Roundup
Issued by NWS

Home | Current Version | Previous Version | Text Only | Print | Product List | Glossary Off
Versions: 1 2 3 4 5 6 7 8 9 10 11 12 13 14 15 16 17 18 19 20 21 22 23 24 25 26 27 28 29 30 31 32 33 34 35 36 37 38 39 40 41 42 43 44 45 46 47 48 49 50

000
ASUS45 KTFX 171704
RWRMT
MONTANA HOURLY WEATHER ROUNDUP
NATIONAL WEATHER SERVICE GREAT FALLS MT
1104 AM MDT THU APR 17 2014

NOTE: "FAIR" INDICATES FEW OR NO CLOUDS BELOW 12000 FEET WITH NO
SIGNIFICANT WEATHER AND/OR OBSTRUCTIONS TO VISIBILITY.

* THESE STATIONS ARE NOT UNDER NWS QUALITY CONTROL. THEY DO NOT
   REPORT WEATHER SUCH AS PRECIPITATION OR FOG.

MTZ001>007-043-171800-
WEST OF THE DIVIDE
CITY           SKY/WX    TMP DP  RH WIND       PRES   REMARKS
KALISPELL      LGT RAIN  45  39  80 SE12      29.84F
MISSOULA       CLOUDY    50  32  50 VRB3      29.88F
BUTTE          PTSUNNY   48  21  34 SW9G17    29.91F
MULLAN PASS    LGT SNOW  30  30 100 VRB5      29.83S VSB M1/4 WCI  25
* ESSEX        N/A       41  35  79 NE5        N/A
* LINCOLN      N/A       41  32  70 E2         N/A
* LOOKOUT PASS N/A       37  37 100 S3         N/A
* POLSON       N/A       48  41  77 SW3        N/A
* SEELEY LAKE  N/A       43  37  79 NW1        N/A
* THOMP F APT  CLOUDY    44  17  34 SE6G14     N/A
$$

MTZ008-052>055-171800-
SOUTHWEST MONTANA
CITY           SKY/WX    TMP DP  RH WIND       PRES   REMARKS
BOZEMAN        PTSUNNY   50  25  38 VRB5      29.93F
DILLON         PTCLDY    48  19  32 S10       29.93F
W YELLOWSTONE  N/A       42  19  40 SW7G15     N/A
* THREE FORKS  CLOUDY    48  30  50 N/A        N/A
* BOULDER HILL N/A       39  22  51 S13        N/A   WCI  31
* MONIDA PASS  N/A       40  15  36 SE17G24    N/A   WCI  31
* RAYNOLDS PAS N/A       34  17  50 S22        N/A   WCI  22
* WHITEHALL    N/A       47  23  39 S7G17      N/A
* WISE RIVER   N/A       44  24  45 N3         N/A
$$

MTZ009>010-012-014-046-048-049-054-171800-
EAST SLOPES AND CENTRAL MONTANA
CITY           SKY/WX    TMP DP  RH WIND       PRES   REMARKS
CUT BANK       CLOUDY    34  30  85 CALM      29.82F
GREAT FALLS    CLOUDY    50  30  46 SW17      29.86S
HELENA         CLOUDY    48  28  46 CALM      29.88F
MALMSTROM AFB  CLOUDY    52  28  40 SW17      29.83F
* CONRAD       CLOUDY    46  36  68 SW6        N/A
* DEARBORN     N/A       50  26  39 S17        N/A
* EAST GLACIER N/A       37  31  79 W19        N/A   WCI  27
* MONARCH      N/A       41  22  47 SW11G16    N/A
* PENDROY      N/A       42  31  65 S5         N/A
* ROGERS PASS  N/A       38  27  65 E6G13      N/A   WCI  33
* SAINT MARY   N/A       40  31  70 S6G15      N/A   WCI  36
* SWEET GRASS  N/A       34  34 100 S12G17     N/A   WCI  25
$$

MTZ011-013-016-021-035-040-045-047-050-051-171800-
NORTH CENTRAL MONTANA
CITY           SKY/WX    TMP DP  RH WIND       PRES   REMARKS
HAVRE          PTCLDY    46  30  54 CALM      29.87F
LEWISTOWN      SUNNY     48  32  54 SW16      29.89F
* CHESTER      N/A       44  34  68 S5G10      N/A
* DENTON       N/A       53  31  43 S12G17     N/A
* GEYSER       N/A       50  29  44 W24G34     N/A
* JUDITH GAP   N/A       35  35 100 SE10       N/A   WCI  27
* LOMA         N/A       50  33  52 E2G7       N/A
$$

MTZ017>020-022>027-061-062-171800-
NORTHEAST MONTANA
CITY           SKY/WX    TMP DP  RH WIND       PRES   REMARKS
GLASGOW        CLOUDY    39  27  62 SE21      30.01F WCI  29
GLENDIVE       PTSUNNY   43  28  56 SE10      30.08F
JORDAN         PTCLDY    48  30  50 S13G21    29.97F
SIDNEY         CLOUDY    43  27  53 SE20      30.13F
WOLF POINT     SUNNY     45  27  49 SE13G20   30.07F
* CIRCLE       N/A       42  31  65 SE11       N/A
* LINDSAY DVD  N/A       38  28  67 SE17G24    N/A   WCI  29
* NAVAJO       N/A       37  22  55 S15G23     N/A   WCI  28
* SACO         N/A       37  25  62 E16        N/A   WCI  28
$$

MTZ028>042-056>058-171800-
SOUTHCENTRAL AND SOUTHEAST MONTANA
CITY           SKY/WX    TMP DP  RH WIND       PRES   REMARKS
BAKER          CLOUDY    37  30  76 SE24G29   30.07F WCI  26
BILLINGS       PTCLDY    45  34  65 S3        29.96F
LIVINGSTON     SUNNY     54  21  27 S15G28    29.91F
MILES CITY     SUNNY     46  34  63 SE7       30.00F
* LAUREL APT   PTCLDY    45  30  56 S7         N/A
* ROUNDUP APT  PTCLDY    39  36  89 S10        N/A   WCI  32
* HYSHAM       N/A       50  31  48 SW4        N/A
* LAME DEER    N/A       45  34  65 S7G13      N/A
* REED POINT   N/A       45  34  65 S1         N/A
* ROSCOE HILL  N/A       45  21  38 E12        N/A
$$

REGIONAL REPORTS...DAKOTAS
CITY           SKY/WX    TMP DP  RH WIND       PRES   REMARKS
WILLISTON      PTSUNNY   37  25  62 SE21      30.16F WCI  26
DICKINSON      CLOUDY    36  25  64 SE18G28   30.14F WCI  26
CROSBY         CLOUDY    32  18  56 SE23      30.18F WCI  19
TIOGA          CLOUDY    28  21  75 SE18      30.22F WCI  15
WATFORD CITY   CLOUDY    36  19  50 SE16G23   30.15F WCI  26
BISMARCK       SUNNY     37  14  39 SE8       30.28F WCI  31
GRAND FORKS    SUNNY     37  12  36 N8        30.36F WCI  31
FARGO          SUNNY     39  16  39 N10       30.33F WCI  32
RAPID CITY     PTSUNNY   43  30  60 S22G28    30.11F
$$

REGIONAL REPORTS...WYOMING/IDAHO/WASHINGTON
CITY           SKY/WX    TMP DP  RH WIND       PRES   REMARKS
GILLETTE       SUNNY     46  36  68 N/A       30.02R
SHERIDAN       PTCLDY    43  36  76 VRB3      29.99F
CODY           SUNNY     48  23  37 CALM      29.95F
YELLOWSTONE LA SUNNY     34  16  48 VRB3      30.05F
SALMON         PTSUNNY   46  21  37 CALM      29.94F
MULLAN PASS    LGT SNOW  30  30 100 VRB5      29.83S VSB M1/4 WCI  25
SPOKANE        LGT RAIN  46  43  89 SW16      29.83S

$$




USA.gov is the U.S. government's official web portal to all federal, state and local government web resources and services.